Year,Month,Day,Hour,Minute,Value (Times are PST for temperature in C)
2016,11,07,00,00,10.60
2016,11,07,00,01,10.60
2016,11,07,00,02,10.60
2016,11,07,00,03,10.60
2016,11,07,00,04,10.60
2016,11,07,00,05,10.60
2016,11,07,00,06,10.60
2016,11,07,00,07,10.60
2016,11,07,00,08,10.60
2016,11,07,00,09,10.60
2016,11,07,00,10,10.60
2016,11,07,00,11,10.60
2016,11,07,00,12,10.60
2016,11,07,00,13,10.60
2016,11,07,00,14,10.60
2016,11,07,00,15,10.60
2016,11,07,00,16,10.60
2016,11,07,00,17,10.60
2016,11,07,00,18,10.60
2016,11,07,00,19,10.60
2016,11,07,00,20,10.60
2016,11,07,00,21,10.60
2016,11,07,00,22,10.60
2016,11,07,00,23,10.60
2016,11,07,00,24,10.50
2016,11,07,00,25,10.50
2016,11,07,00,26,10.50
2016,11,07,00,27,10.50
2016,11,07,00,28,10.50
2016,11,07,00,29,10.50
2016,11,07,00,30,10.50
2016,11,07,00,31,10.50
2016,11,07,00,32,10.50
2016,11,07,00,33,10.50
2016,11,07,00,34,10.50
2016,11,07,00,35,10.50
2016,11,07,00,36,10.50
2016,11,07,00,37,10.50
2016,11,07,00,38,10.50
2016,11,07,00,39,10.50
2016,11,07,00,40,10.50
2016,11,07,00,41,10.50
2016,11,07,00,42,10.50
2016,11,07,00,43,10.50
2016,11,07,00,44,10.50
2016,11,07,00,45,10.40
2016,11,07,00,46,10.40
2016,11,07,00,47,10.40
2016,11,07,00,48,10.40
2016,11,07,00,49,10.40
2016,11,07,00,50,10.40
2016,11,07,00,51,10.40
2016,11,07,00,52,10.40
2016,11,07,00,53,10.40
2016,11,07,00,54,10.40
2016,11,07,00,55,10.40
2016,11,07,00,56,10.40
2016,11,07,00,57,10.40
2016,11,07,00,58,10.40
2016,11,07,00,59,10.40
2016,11,07,01,00,10.40
2016,11,07,01,01,10.40
2016,11,07,01,02,10.40
2016,11,07,01,03,10.40
2016,11,07,01,04,10.40
2016,11,07,01,05,10.40
2016,11,07,01,06,10.40
2016,11,07,01,07,10.40
2016,11,07,01,08,10.40
2016,11,07,01,09,10.40
2016,11,07,01,10,10.40
2016,11,07,01,11,10.30
2016,11,07,01,12,10.30
2016,11,07,01,13,10.30
2016,11,07,01,14,10.30
2016,11,07,01,15,10.30
2016,11,07,01,16,10.30
2016,11,07,01,17,10.30
2016,11,07,01,18,10.30
2016,11,07,01,19,10.30
2016,11,07,01,20,10.30
2016,11,07,01,21,10.30
2016,11,07,01,22,10.30
2016,11,07,01,23,10.30
2016,11,07,01,24,10.30
2016,11,07,01,25,10.30
2016,11,07,01,26,10.30
2016,11,07,01,27,10.20
2016,11,07,01,28,10.20
2016,11,07,01,29,10.20
2016,11,07,01,30,10.20
2016,11,07,01,31,10.20
2016,11,07,01,32,10.20
2016,11,07,01,33,10.20
2016,11,07,01,34,10.20
2016,11,07,01,35,10.20
2016,11,07,01,36,10.20
2016,11,07,01,37,10.20
2016,11,07,01,38,10.20
2016,11,07,01,39,10.20
2016,11,07,01,40,10.20
2016,11,07,01,41,10.20
2016,11,07,01,42,10.20
2016,11,07,01,43,10.20
2016,11,07,01,44,10.20
2016,11,07,01,45,10.20
2016,11,07,01,46,10.20
2016,11,07,01,47,10.20
2016,11,07,01,48,10.20
2016,11,07,01,49,10.20
2016,11,07,01,50,10.20
2016,11,07,01,51,10.20
2016,11,07,01,52,10.20
2016,11,07,01,53,10.20
2016,11,07,01,54,10.20
2016,11,07,01,55,10.20
2016,11,07,01,56,10.20
2016,11,07,01,57,10.20
2016,11,07,01,58,10.20
2016,11,07,01,59,10.20
2016,11,07,02,00,10.20
2016,11,07,02,01,10.20
2016,11,07,02,02,10.20
2016,11,07,02,03,10.20
2016,11,07,02,04,10.20
2016,11,07,02,05,10.20
2016,11,07,02,06,10.20
2016,11,07,02,07,10.20
2016,11,07,02,08,10.30
2016,11,07,02,09,10.30
2016,11,07,02,10,10.30
2016,11,07,02,11,10.30
2016,11,07,02,12,10.30
2016,11,07,02,13,10.30
2016,11,07,02,14,10.30
2016,11,07,02,15,10.30
2016,11,07,02,16,10.30
2016,11,07,02,17,10.30
2016,11,07,02,18,10.30
2016,11,07,02,19,10.30
2016,11,07,02,20,10.30
2016,11,07,02,21,10.30
2016,11,07,02,22,10.30
2016,11,07,02,23,10.30
2016,11,07,02,24,10.30
2016,11,07,02,25,10.30
2016,11,07,02,26,10.30
2016,11,07,02,27,10.30
2016,11,07,02,28,10.30
2016,11,07,02,29,10.30
2016,11,07,02,30,10.30
2016,11,07,02,31,10.40
2016,11,07,02,32,10.40
2016,11,07,02,33,10.40
2016,11,07,02,34,10.40
2016,11,07,02,35,10.40
2016,11,07,02,36,10.40
2016,11,07,02,37,10.40
2016,11,07,02,38,10.40
2016,11,07,02,39,10.40
2016,11,07,02,40,10.40
2016,11,07,02,41,10.40
2016,11,07,02,42,10.40
2016,11,07,02,43,10.40
2016,11,07,02,44,10.40
2016,11,07,02,45,10.50
2016,11,07,02,46,10.50
2016,11,07,02,47,10.50
2016,11,07,02,48,10.50
2016,11,07,02,49,10.50
2016,11,07,02,50,10.50
2016,11,07,02,51,10.50
2016,11,07,02,52,10.50
2016,11,07,02,53,10.50
2016,11,07,02,54,10.50
2016,11,07,02,55,10.60
2016,11,07,02,56,10.60
2016,11,07,02,57,10.60
2016,11,07,02,58,10.60
2016,11,07,02,59,10.60
2016,11,07,03,00,10.60
2016,11,07,03,01,10.60
2016,11,07,03,02,10.60
2016,11,07,03,03,10.60
2016,11,07,03,04,10.60
2016,11,07,03,05,10.60
2016,11,07,03,06,10.60
2016,11,07,03,07,10.60
2016,11,07,03,08,10.60
2016,11,07,03,09,10.60
2016,11,07,03,10,10.60
2016,11,07,03,11,10.60
2016,11,07,03,12,10.60
2016,11,07,03,13,10.60
2016,11,07,03,14,10.60
2016,11,07,03,15,10.60
2016,11,07,03,16,10.60
2016,11,07,03,17,10.60
2016,11,07,03,18,10.60
2016,11,07,03,19,10.60
2016,11,07,03,20,10.60
2016,11,07,03,21,10.60
2016,11,07,03,22,10.70
2016,11,07,03,23,10.60
2016,11,07,03,24,10.60
2016,11,07,03,25,10.60
2016,11,07,03,26,10.60
2016,11,07,03,27,10.60
2016,11,07,03,28,10.60
2016,11,07,03,29,10.60
2016,11,07,03,30,10.60
2016,11,07,03,31,10.70
2016,11,07,03,32,10.70
2016,11,07,03,33,10.70
2016,11,07,03,34,10.70
2016,11,07,03,35,10.70
2016,11,07,03,36,10.70
2016,11,07,03,37,10.70
2016,11,07,03,38,10.70
2016,11,07,03,39,10.70
2016,11,07,03,40,10.70
2016,11,07,03,41,10.70
2016,11,07,03,42,10.70
2016,11,07,03,43,10.70
2016,11,07,03,44,10.70
2016,11,07,03,45,10.70
2016,11,07,03,46,10.70
2016,11,07,03,47,10.70
2016,11,07,03,48,10.70
2016,11,07,03,49,10.70
2016,11,07,03,50,10.70
2016,11,07,03,51,10.70
2016,11,07,03,52,10.70
2016,11,07,03,53,10.70
2016,11,07,03,54,10.70
2016,11,07,03,55,10.70
2016,11,07,03,56,10.70
2016,11,07,03,57,10.70
2016,11,07,03,58,10.70
2016,11,07,03,59,10.70
2016,11,07,04,00,10.70
2016,11,07,04,01,10.70
2016,11,07,04,02,10.70
2016,11,07,04,03,10.70
2016,11,07,04,04,10.70
2016,11,07,04,05,10.60
2016,11,07,04,06,10.60
2016,11,07,04,07,10.60
2016,11,07,04,08,10.60
2016,11,07,04,09,10.60
2016,11,07,04,10,10.60
2016,11,07,04,11,10.60
2016,11,07,04,12,10.60
2016,11,07,04,13,10.60
2016,11,07,04,14,10.60
2016,11,07,04,15,10.60
2016,11,07,04,16,10.60
2016,11,07,04,17,10.60
2016,11,07,04,18,10.60
2016,11,07,04,19,10.60
2016,11,07,04,20,10.60
2016,11,07,04,21,10.60
2016,11,07,04,22,10.60
2016,11,07,04,23,10.60
2016,11,07,04,24,10.60
2016,11,07,04,25,10.60
2016,11,07,04,26,10.60
2016,11,07,04,27,10.60
2016,11,07,04,28,10.60
2016,11,07,04,29,10.60
2016,11,07,04,30,10.60
2016,11,07,04,31,10.60
2016,11,07,04,32,10.60
2016,11,07,04,33,10.60
2016,11,07,04,34,10.60
2016,11,07,04,35,10.60
2016,11,07,04,36,10.60
2016,11,07,04,37,10.60
2016,11,07,04,38,10.60
2016,11,07,04,39,10.60
2016,11,07,04,40,10.60
2016,11,07,04,41,10.60
2016,11,07,04,42,10.60
2016,11,07,04,43,10.60
2016,11,07,04,44,10.60
2016,11,07,04,45,10.60
2016,11,07,04,46,10.60
2016,11,07,04,47,10.60
2016,11,07,04,48,10.60
2016,11,07,04,49,10.60
2016,11,07,04,50,10.60
2016,11,07,04,51,10.60
2016,11,07,04,52,10.60
2016,11,07,04,53,10.60
2016,11,07,04,54,10.60
2016,11,07,04,55,10.60
2016,11,07,04,56,10.60
2016,11,07,04,57,10.60
2016,11,07,09,11,11.10
2016,11,07,09,12,11.10
2016,11,07,09,13,11.10
2016,11,07,09,14,11.10
2016,11,07,09,15,11.10
2016,11,07,09,16,11.10
2016,11,07,09,17,11.10
2016,11,07,09,18,11.10
2016,11,07,09,19,11.10
2016,11,07,09,20,11.10
2016,11,07,09,21,11.20
2016,11,07,09,22,11.20
2016,11,07,09,23,11.20
2016,11,07,09,24,11.20
2016,11,07,09,25,11.20
2016,11,07,09,26,11.20
2016,11,07,09,27,11.20
2016,11,07,09,28,11.20
2016,11,07,09,29,11.20
2016,11,07,09,30,11.20
2016,11,07,09,31,11.20
2016,11,07,09,32,11.20
2016,11,07,09,33,11.20
2016,11,07,09,34,11.20
2016,11,07,09,35,11.20
2016,11,07,09,36,11.20
2016,11,07,09,37,11.30
2016,11,07,09,38,11.30
2016,11,07,09,39,11.30
2016,11,07,09,40,11.30
2016,11,07,09,41,11.30
2016,11,07,09,42,11.30
2016,11,07,09,43,11.30
2016,11,07,09,44,11.30
2016,11,07,09,45,11.30
2016,11,07,09,46,11.30
2016,11,07,09,47,11.30
2016,11,07,09,48,11.30
2016,11,07,09,49,11.30
2016,11,07,09,50,11.40
2016,11,07,09,51,11.40
2016,11,07,09,52,11.40
2016,11,07,09,53,11.40
2016,11,07,09,54,11.40
2016,11,07,09,55,11.30
2016,11,07,09,56,11.30
2016,11,07,09,57,11.30
2016,11,07,09,58,11.20
2016,11,07,09,59,11.20
2016,11,07,10,00,11.20
2016,11,07,10,01,11.10
2016,11,07,10,02,11.10
2016,11,07,10,03,11.10
2016,11,07,10,04,11.00
2016,11,07,10,05,11.00
2016,11,07,10,06,10.90
2016,11,07,10,07,11.00
2016,11,07,10,08,10.90
2016,11,07,10,09,10.90
2016,11,07,10,10,11.00
2016,11,07,10,11,11.00
2016,11,07,10,12,11.00
2016,11,07,10,13,11.00
2016,11,07,10,14,10.90
2016,11,07,10,15,10.90
2016,11,07,10,16,10.90
2016,11,07,10,17,10.90
2016,11,07,10,18,10.90
2016,11,07,10,19,10.90
2016,11,07,10,20,10.90
2016,11,07,10,21,10.90
2016,11,07,10,22,10.90
2016,11,07,10,23,10.90
2016,11,07,10,24,10.80
2016,11,07,10,25,10.80
2016,11,07,10,26,10.80
2016,11,07,10,27,10.80
2016,11,07,10,28,10.80
2016,11,07,10,29,10.80
2016,11,07,10,30,10.80
2016,11,07,10,31,10.80
2016,11,07,10,32,10.80
2016,11,07,10,33,10.80
2016,11,07,10,34,10.80
2016,11,07,10,35,10.80
2016,11,07,10,36,10.80
2016,11,07,10,37,10.80
2016,11,07,10,38,10.80
2016,11,07,10,39,10.90
2016,11,07,10,40,10.90
2016,11,07,10,41,10.90
2016,11,07,10,42,10.90
2016,11,07,10,43,10.90
2016,11,07,10,44,10.90
2016,11,07,10,45,10.90
2016,11,07,10,46,10.90
2016,11,07,10,47,10.90
2016,11,07,10,48,10.90
2016,11,07,10,49,10.90
2016,11,07,10,50,10.90
2016,11,07,10,51,10.90
2016,11,07,10,52,10.90
2016,11,07,10,53,10.90
2016,11,07,10,54,10.90
2016,11,07,10,55,10.90
2016,11,07,10,56,10.90
2016,11,07,10,57,10.90
2016,11,07,10,58,11.00
2016,11,07,10,59,11.00
2016,11,07,11,00,11.10
2016,11,07,11,01,11.10
2016,11,07,11,02,11.10
2016,11,07,11,03,11.10
2016,11,07,11,04,11.10
2016,11,07,11,05,11.20
2016,11,07,11,06,11.20
2016,11,07,11,07,11.20
2016,11,07,11,08,11.20
2016,11,07,11,09,11.20
2016,11,07,11,10,11.20
2016,11,07,11,11,11.20
2016,11,07,11,12,11.20
2016,11,07,11,13,11.30
2016,11,07,11,14,11.30
2016,11,07,11,15,11.30
2016,11,07,11,16,11.30
2016,11,07,11,17,11.30
2016,11,07,11,18,11.30
2016,11,07,11,19,11.30
2016,11,07,11,20,11.30
2016,11,07,11,21,11.30
2016,11,07,11,22,11.30
2016,11,07,11,23,11.30
2016,11,07,11,24,11.30
2016,11,07,11,25,11.30
2016,11,07,11,26,11.30
2016,11,07,11,27,11.30
2016,11,07,11,28,11.30
2016,11,07,11,29,11.30
2016,11,07,11,30,11.30
2016,11,07,11,31,11.40
2016,11,07,11,32,11.40
2016,11,07,11,33,11.40
2016,11,07,11,34,11.40
2016,11,07,11,35,11.40
2016,11,07,11,36,11.40
2016,11,07,11,37,11.40
2016,11,07,11,38,11.40
2016,11,07,11,39,11.40
2016,11,07,11,40,11.40
2016,11,07,11,41,11.40
2016,11,07,11,42,11.40
2016,11,07,11,43,11.40
2016,11,07,11,44,11.40
2016,11,07,11,45,11.40
2016,11,07,11,46,11.40
2016,11,07,11,47,11.40
2016,11,07,11,48,11.40
2016,11,07,11,49,11.50
2016,11,07,11,50,11.50
2016,11,07,11,51,11.50
2016,11,07,11,52,11.50
2016,11,07,11,53,11.50
2016,11,07,11,54,11.50
2016,11,07,11,55,11.50
2016,11,07,11,56,11.50
2016,11,07,11,57,11.50
2016,11,07,11,58,11.50
2016,11,07,11,59,11.50
2016,11,07,12,00,11.50
2016,11,07,12,01,11.50
2016,11,07,12,02,11.40
2016,11,07,12,03,11.40
2016,11,07,12,04,11.40
2016,11,07,12,05,11.40
2016,11,07,12,06,11.40
2016,11,07,12,07,11.40
2016,11,07,12,08,11.40
2016,11,07,12,09,11.40
2016,11,07,12,10,11.40
2016,11,07,12,11,11.40
2016,11,07,12,12,11.40
2016,11,07,12,13,11.40
2016,11,07,12,14,11.40
2016,11,07,12,15,11.40
2016,11,07,12,16,11.40
2016,11,07,12,17,11.40
2016,11,07,12,18,11.40
2016,11,07,12,19,11.40
2016,11,07,12,20,11.40
2016,11,07,12,21,11.40
2016,11,07,12,22,11.40
2016,11,07,12,23,11.40
2016,11,07,12,24,11.40
2016,11,07,12,25,11.40
2016,11,07,12,26,11.40
2016,11,07,12,27,11.40
2016,11,07,12,28,11.40
2016,11,07,12,29,11.30
2016,11,07,12,30,11.30
2016,11,07,12,31,11.30
2016,11,07,12,32,11.30
2016,11,07,12,33,11.40
2016,11,07,12,34,11.40
2016,11,07,12,35,11.40
2016,11,07,12,36,11.40
2016,11,07,12,37,11.40
2016,11,07,12,38,11.40
2016,11,07,12,39,11.40
2016,11,07,12,40,11.40
2016,11,07,12,41,11.40
2016,11,07,12,42,11.40
2016,11,07,12,43,11.40
2016,11,07,12,44,11.40
2016,11,07,12,45,11.40
2016,11,07,12,46,11.30
2016,11,07,12,47,11.30
2016,11,07,12,48,11.30
2016,11,07,12,49,11.40
2016,11,07,12,50,11.30
2016,11,07,12,51,11.30
2016,11,07,12,52,11.30
2016,11,07,12,53,11.30
2016,11,07,12,54,11.30
2016,11,07,12,55,11.30
2016,11,07,12,56,11.30
2016,11,07,12,57,11.30
2016,11,07,12,58,11.30
2016,11,07,12,59,11.30
2016,11,07,13,00,11.30
2016,11,07,13,01,11.30
2016,11,07,13,02,11.30
2016,11,07,13,03,11.30
2016,11,07,13,04,11.40
2016,11,07,13,05,11.40
2016,11,07,13,06,11.40
2016,11,07,13,07,11.40
2016,11,07,13,08,11.40
2016,11,07,13,09,11.40
2016,11,07,13,10,11.40
2016,11,07,13,11,11.40
2016,11,07,13,12,11.50
2016,11,07,13,13,11.50
2016,11,07,13,14,11.50
2016,11,07,13,15,11.50
2016,11,07,13,16,11.60
2016,11,07,13,17,11.50
2016,11,07,13,18,11.50
2016,11,07,13,19,11.60
2016,11,07,13,20,11.60
2016,11,07,13,21,11.60
2016,11,07,13,22,11.50
2016,11,07,13,23,11.60
2016,11,07,13,24,11.50
2016,11,07,13,25,11.50
2016,11,07,13,26,11.50
2016,11,07,13,27,11.50
2016,11,07,13,28,11.50
2016,11,07,13,29,11.50
2016,11,07,13,30,11.50
2016,11,07,13,31,11.50
2016,11,07,13,32,11.50
2016,11,07,13,33,11.50
2016,11,07,13,34,11.40
2016,11,07,13,35,11.50
2016,11,07,13,36,11.50
2016,11,07,13,37,11.50
2016,11,07,13,38,11.50
2016,11,07,13,39,11.50
2016,11,07,13,40,11.50
2016,11,07,13,41,11.50
2016,11,07,13,42,11.50
2016,11,07,13,43,11.50
2016,11,07,13,44,11.50
2016,11,07,13,45,11.50
2016,11,07,13,46,11.50
2016,11,07,13,47,11.50
2016,11,07,13,48,11.50
2016,11,07,13,49,11.50
2016,11,07,13,50,11.50
2016,11,07,13,51,11.50
2016,11,07,13,52,11.50
2016,11,07,13,53,11.50
2016,11,07,13,54,11.50
2016,11,07,13,55,11.50
2016,11,07,13,56,11.60
2016,11,07,13,57,11.60
2016,11,07,13,58,11.60
2016,11,07,13,59,11.60
2016,11,07,14,00,11.60
2016,11,07,14,01,11.60
2016,11,07,14,02,11.50
2016,11,07,14,03,11.60
2016,11,07,14,04,11.50
2016,11,07,14,05,11.60
2016,11,07,14,06,11.60
2016,11,07,14,07,11.60
2016,11,07,14,08,11.50
2016,11,07,14,09,11.50
2016,11,07,14,10,11.50
2016,11,07,14,11,11.50
2016,11,07,14,12,11.50
2016,11,07,14,13,11.50
2016,11,07,14,14,11.50
2016,11,07,14,15,11.50
2016,11,07,14,16,11.50
2016,11,07,14,17,11.60
2016,11,07,14,18,11.60
2016,11,07,14,19,11.60
2016,11,07,14,20,11.60
2016,11,07,14,21,11.60
2016,11,07,14,22,11.60
2016,11,07,14,23,11.60
2016,11,07,14,24,11.60
2016,11,07,14,25,11.60
2016,11,07,14,26,11.60
2016,11,07,14,27,11.60
2016,11,07,14,28,11.60
2016,11,07,14,29,11.60
2016,11,07,14,30,11.60
2016,11,07,14,31,11.60
2016,11,07,14,32,11.60
2016,11,07,14,33,11.60
2016,11,07,14,34,11.60
2016,11,07,14,35,11.60
2016,11,07,14,36,11.60
2016,11,07,14,37,11.60
2016,11,07,14,38,11.60
2016,11,07,14,39,11.60
2016,11,07,14,40,11.70
2016,11,07,14,41,11.70
2016,11,07,14,42,11.60
2016,11,07,14,43,11.60
2016,11,07,14,44,11.60
2016,11,07,14,45,11.60
2016,11,07,14,46,11.60
2016,11,07,14,47,11.60
2016,11,07,14,48,11.60
2016,11,07,14,49,11.60
2016,11,07,14,50,11.60
2016,11,07,14,51,11.60
2016,11,07,14,52,11.60
2016,11,07,14,53,11.60
2016,11,07,14,54,11.60
2016,11,07,14,55,11.60
2016,11,07,14,56,11.60
2016,11,07,14,57,11.60
2016,11,07,14,58,11.60
2016,11,07,14,59,11.60
2016,11,07,15,00,11.60
2016,11,07,15,01,11.60
2016,11,07,15,02,11.60
2016,11,07,15,03,11.60
2016,11,07,15,04,11.60
2016,11,07,15,05,11.60
2016,11,07,15,06,11.60
2016,11,07,15,07,11.60
2016,11,07,15,08,11.60
2016,11,07,15,09,11.60
2016,11,07,15,10,11.60
2016,11,07,15,11,11.60
2016,11,07,15,12,11.60
2016,11,07,15,13,11.60
2016,11,07,15,14,11.60
2016,11,07,15,15,11.60
2016,11,07,15,16,11.60
2016,11,07,15,17,11.60
2016,11,07,15,18,11.60
2016,11,07,15,19,11.60
2016,11,07,15,20,11.60
2016,11,07,15,21,11.60
2016,11,07,15,22,11.60
2016,11,07,15,23,11.60
2016,11,07,15,24,11.70
2016,11,07,15,25,11.70
2016,11,07,15,26,11.70
2016,11,07,15,27,11.70
2016,11,07,15,28,11.70
2016,11,07,15,29,11.70
2016,11,07,15,30,11.70
2016,11,07,15,31,11.70
2016,11,07,15,32,11.70
2016,11,07,15,33,11.70
2016,11,07,15,34,11.70
2016,11,07,15,35,11.70
2016,11,07,15,36,11.70
2016,11,07,15,37,11.70
2016,11,07,15,38,11.70
2016,11,07,15,39,11.70
2016,11,07,15,40,11.70
2016,11,07,15,41,11.70
2016,11,07,15,42,11.70
2016,11,07,15,43,11.70
2016,11,07,15,44,11.70
2016,11,07,15,45,11.70
2016,11,07,15,46,11.70
2016,11,07,15,47,11.70
2016,11,07,15,48,11.70
2016,11,07,15,49,11.70
2016,11,07,15,50,11.70
2016,11,07,15,51,11.70
2016,11,07,15,52,11.70
2016,11,07,15,53,11.70
2016,11,07,15,54,11.70
2016,11,07,15,55,11.70
2016,11,07,15,56,11.70
2016,11,07,15,57,11.60
2016,11,07,15,58,11.70
2016,11,07,15,59,11.70
2016,11,07,16,00,11.70
2016,11,07,16,01,11.70
2016,11,07,16,02,11.70
2016,11,07,16,03,11.70
2016,11,07,16,04,11.70
2016,11,07,16,05,11.70
2016,11,07,16,06,11.70
2016,11,07,16,07,11.70
2016,11,07,16,08,11.70
2016,11,07,16,09,11.70
2016,11,07,16,10,11.70
2016,11,07,16,11,11.70
2016,11,07,16,12,11.70
2016,11,07,16,13,11.70
2016,11,07,16,14,11.70
2016,11,07,16,15,11.70
2016,11,07,16,16,11.70
2016,11,07,16,17,11.70
2016,11,07,16,18,11.70
2016,11,07,16,19,11.70
2016,11,07,16,20,11.70
2016,11,07,16,21,11.70
2016,11,07,16,22,11.70
2016,11,07,16,23,11.70
2016,11,07,16,24,11.70
2016,11,07,16,25,11.70
2016,11,07,16,26,11.70
2016,11,07,16,27,11.70
2016,11,07,16,28,11.70
2016,11,07,16,29,11.70
2016,11,07,16,30,11.70
2016,11,07,16,31,11.70
2016,11,07,16,32,11.70
2016,11,07,16,33,11.70
2016,11,07,16,34,11.70
2016,11,07,16,35,11.70
2016,11,07,16,36,11.70
2016,11,07,16,37,11.60
2016,11,07,16,38,11.70
2016,11,07,16,39,11.60
2016,11,07,16,40,11.60
2016,11,07,16,41,11.60
2016,11,07,16,42,11.60
2016,11,07,16,43,11.60
2016,11,07,16,44,11.60
2016,11,07,16,45,11.60
2016,11,07,16,46,11.60
2016,11,07,16,47,11.60
2016,11,07,16,48,11.60
2016,11,07,16,49,11.60
2016,11,07,16,50,11.60
2016,11,07,16,51,11.60
2016,11,07,16,52,11.60
2016,11,07,16,53,11.60
2016,11,07,16,54,11.50
2016,11,07,16,55,11.50
2016,11,07,16,56,11.50
2016,11,07,16,57,11.50
2016,11,07,16,58,11.50
2016,11,07,16,59,11.50
2016,11,07,17,00,11.50
2016,11,07,17,01,11.60
2016,11,07,17,02,11.60
2016,11,07,17,03,11.60
2016,11,07,17,04,11.60
2016,11,07,17,05,11.60
2016,11,07,17,06,11.60
2016,11,07,17,07,11.60
2016,11,07,17,08,11.60
2016,11,07,17,09,11.60
2016,11,07,17,10,11.60
2016,11,07,17,11,11.60
2016,11,07,17,12,11.60
2016,11,07,17,13,11.60
2016,11,07,17,14,11.60
2016,11,07,17,15,11.60
2016,11,07,17,16,11.60
2016,11,07,17,17,11.60
2016,11,07,17,18,11.60
2016,11,07,17,19,11.60
2016,11,07,17,20,11.60
2016,11,07,17,21,11.70
2016,11,07,17,22,11.70
2016,11,07,17,23,11.70
2016,11,07,17,24,11.60
2016,11,07,17,25,11.70
2016,11,07,17,26,11.70
2016,11,07,17,27,11.70
2016,11,07,17,28,11.70
2016,11,07,17,29,11.70
2016,11,07,17,30,11.70
2016,11,07,17,31,11.70
2016,11,07,17,32,11.70
2016,11,07,17,33,11.70
2016,11,07,17,34,11.70
2016,11,07,17,35,11.70
2016,11,07,17,36,11.70
2016,11,07,17,37,11.70
2016,11,07,17,38,11.70
2016,11,07,17,39,11.70
2016,11,07,17,40,11.70
2016,11,07,17,41,11.70
2016,11,07,17,42,11.70
2016,11,07,17,43,11.70
2016,11,07,17,44,11.70
2016,11,07,17,45,11.70
2016,11,07,17,46,11.70
2016,11,07,17,47,11.70
2016,11,07,17,48,11.70
2016,11,07,17,49,11.70
2016,11,07,17,50,11.70
2016,11,07,17,51,11.70
2016,11,07,17,52,11.70
2016,11,07,17,53,11.70
2016,11,07,17,54,11.70
2016,11,07,17,55,11.70
2016,11,07,17,56,11.70
2016,11,07,17,57,11.70
2016,11,07,17,58,11.70
2016,11,07,17,59,11.70
2016,11,07,18,00,11.70
2016,11,07,18,01,11.70
2016,11,07,18,02,11.70
2016,11,07,18,03,11.70
2016,11,07,18,04,11.70
2016,11,07,18,05,11.70
2016,11,07,18,06,11.70
2016,11,07,18,07,11.70
2016,11,07,18,08,11.60
2016,11,07,18,09,11.60
2016,11,07,18,10,11.60
2016,11,07,18,11,11.60
2016,11,07,18,12,11.60
2016,11,07,18,13,11.60
2016,11,07,18,14,11.60
2016,11,07,18,15,11.60
2016,11,07,18,16,11.60
2016,11,07,18,17,11.60
2016,11,07,18,18,11.60
2016,11,07,18,19,11.60
2016,11,07,18,20,11.60
2016,11,07,18,21,11.60
2016,11,07,18,22,11.60
2016,11,07,18,23,11.60
2016,11,07,18,24,11.60
2016,11,07,18,25,11.60
2016,11,07,18,26,11.60
2016,11,07,18,27,11.60
2016,11,07,18,28,11.60
2016,11,07,18,29,11.60
2016,11,07,18,30,11.60
2016,11,07,18,31,11.60
2016,11,07,18,32,11.60
2016,11,07,18,33,11.60
2016,11,07,18,34,11.60
2016,11,07,18,35,11.60
2016,11,07,18,36,11.60
2016,11,07,18,37,11.50
2016,11,07,18,38,11.50
2016,11,07,18,39,11.50
2016,11,07,18,40,11.50
2016,11,07,18,41,11.50
2016,11,07,18,42,11.50
2016,11,07,18,43,11.50
2016,11,07,18,44,11.50
2016,11,07,18,45,11.50
2016,11,07,18,46,11.40
2016,11,07,18,47,11.40
2016,11,07,18,48,11.40
2016,11,07,18,49,11.40
2016,11,07,18,50,11.40
2016,11,07,18,51,11.40
2016,11,07,18,52,11.40
2016,11,07,18,53,11.40
2016,11,07,18,54,11.40
2016,11,07,18,55,11.30
2016,11,07,18,56,11.30
2016,11,07,18,57,11.30
2016,11,07,18,58,11.30
2016,11,07,18,59,11.30
2016,11,07,19,00,11.30
2016,11,07,19,01,11.30
2016,11,07,19,02,11.30
2016,11,07,19,03,11.30
2016,11,07,19,04,11.30
2016,11,07,19,05,11.30
2016,11,07,19,06,11.30
2016,11,07,19,07,11.40
2016,11,07,19,08,11.40
2016,11,07,19,09,11.40
2016,11,07,19,10,11.40
2016,11,07,19,11,11.40
2016,11,07,19,12,11.40
2016,11,07,19,13,11.50
2016,11,07,19,14,11.50
2016,11,07,19,15,11.50
2016,11,07,19,16,11.50
2016,11,07,19,17,11.50
2016,11,07,19,18,11.50
2016,11,07,19,19,11.50
2016,11,07,19,20,11.50
2016,11,07,19,21,11.50
2016,11,07,19,22,11.50
2016,11,07,19,23,11.50
2016,11,07,19,24,11.40
2016,11,07,19,25,11.40
2016,11,07,19,26,11.40
2016,11,07,19,27,11.40
2016,11,07,19,28,11.40
2016,11,07,19,29,11.40
2016,11,07,19,30,11.40
2016,11,07,19,31,11.40
2016,11,07,19,32,11.40
2016,11,07,19,33,11.40
2016,11,07,19,34,11.40
2016,11,07,19,35,11.40
2016,11,07,19,36,11.40
2016,11,07,19,37,11.40
2016,11,07,19,38,11.40
2016,11,07,19,39,11.40
2016,11,07,19,40,11.40
2016,11,07,19,41,11.40
2016,11,07,19,42,11.50
2016,11,07,19,43,11.40
2016,11,07,19,44,11.40
2016,11,07,19,45,11.40
2016,11,07,19,46,11.40
2016,11,07,19,47,11.40
2016,11,07,19,48,11.40
2016,11,07,19,49,11.40
2016,11,07,19,50,11.40
2016,11,07,19,51,11.40
2016,11,07,19,52,11.40
2016,11,07,19,53,11.40
2016,11,07,19,54,11.40
2016,11,07,19,55,11.40
2016,11,07,19,56,11.40
2016,11,07,19,57,11.40
2016,11,07,19,58,11.40
2016,11,07,19,59,11.40
2016,11,07,20,00,11.40
2016,11,07,20,01,11.40
2016,11,07,20,02,11.40
2016,11,07,20,03,11.40
2016,11,07,20,04,11.40
2016,11,07,20,05,11.30
2016,11,07,20,06,11.30
2016,11,07,20,07,11.30
2016,11,07,20,08,11.30
2016,11,07,20,09,11.30
2016,11,07,20,10,11.30
2016,11,07,20,11,11.30
2016,11,07,20,12,11.30
2016,11,07,20,13,11.30
2016,11,07,20,14,11.30
2016,11,07,20,15,11.30
2016,11,07,20,16,11.30
2016,11,07,20,17,11.30
2016,11,07,20,18,11.30
2016,11,07,20,19,11.30
2016,11,07,20,20,11.30
2016,11,07,20,21,11.30
2016,11,07,20,22,11.30
2016,11,07,20,23,11.30
2016,11,07,20,24,11.30
2016,11,07,20,25,11.30
2016,11,07,20,26,11.30
2016,11,07,20,27,11.30
2016,11,07,20,28,11.30
2016,11,07,20,29,11.30
2016,11,07,20,30,11.30
2016,11,07,20,31,11.30
2016,11,07,20,32,11.40
2016,11,07,20,33,11.40
2016,11,07,20,34,11.40
2016,11,07,20,35,11.40
2016,11,07,20,36,11.40
2016,11,07,20,37,11.40
2016,11,07,20,38,11.40
2016,11,07,20,39,11.40
2016,11,07,20,40,11.40
2016,11,07,20,41,11.40
2016,11,07,20,42,11.40
2016,11,07,20,43,11.40
2016,11,07,20,44,11.40
2016,11,07,20,45,11.50
2016,11,07,20,46,11.50
2016,11,07,20,47,11.50
2016,11,07,20,48,11.50
2016,11,07,20,49,11.50
2016,11,07,20,50,11.50
2016,11,07,20,51,11.50
2016,11,07,20,52,11.60
2016,11,07,20,53,11.50
2016,11,07,20,54,11.50
2016,11,07,20,55,11.50
2016,11,07,20,56,11.50
2016,11,07,20,57,11.50
2016,11,07,20,58,11.50
2016,11,07,20,59,11.50
2016,11,07,21,00,11.40
2016,11,07,21,01,11.40
2016,11,07,21,02,11.40
2016,11,07,21,03,11.40
2016,11,07,21,04,11.40
2016,11,07,21,05,11.40
2016,11,07,21,06,11.40
2016,11,07,21,07,11.40
2016,11,07,21,08,11.40
2016,11,07,21,09,11.40
2016,11,07,21,10,11.40
2016,11,07,21,11,11.40
2016,11,07,21,12,11.40
2016,11,07,21,13,11.40
2016,11,07,21,14,11.40
2016,11,07,21,15,11.40
2016,11,07,21,16,11.40
2016,11,07,21,17,11.40
2016,11,07,21,18,11.40
2016,11,07,21,19,11.40
2016,11,07,21,20,11.40
2016,11,07,21,21,11.40
2016,11,07,21,22,11.40
2016,11,07,21,23,11.40
2016,11,07,21,24,11.40
2016,11,07,21,25,11.40
2016,11,07,21,26,11.40
2016,11,07,21,27,11.40
2016,11,07,21,28,11.40
2016,11,07,21,29,11.40
2016,11,07,21,30,11.40
2016,11,07,21,31,11.50
2016,11,07,21,32,11.50